| time (UTC) | temp F | wind direction | speed MPH | gust MPH | rain 1hr in | rain 24hr in | rain mn in | humidity % | barometer mb |
| 20260505173536 | 78 | 173 | 4.0 | 9.0 | 0.00 | 0.00 | 0.00 | 75 | 1006.2 |
| 20260505173041 | 78 | 238 | 5.0 | 9.0 | 0.00 | 0.00 | 0.00 | 75 | 1006.3 |
| 20260505172532 | 78 | 213 | 4.0 | 10.0 | 0.00 | 0.00 | 0.00 | 75 | 1006.3 |
| 20260505172031 | 78 | 188 | 5.0 | 10.0 | 0.00 | 0.00 | 0.00 | 75 | 1006.3 |
| 20260505171534 | 78 | 208 | 5.0 | 10.0 | 0.00 | 0.00 | 0.00 | 76 | 1006.3 |
| 20260505171029 | 77 | 260 | 5.0 | 10.0 | 0.00 | 0.00 | 0.00 | 76 | 1006.2 |
| 20260505170528 | 77 | 267 | 2.0 | 14.0 | 0.00 | 0.00 | 0.00 | 77 | 1006.3 |
| 20260505170034 | 77 | 225 | 3.0 | 9.0 | 0.00 | 0.00 | 0.00 | 78 | 1006.2 |
| 20260505165526 | 76 | 215 | 3.0 | 9.0 | 0.00 | 0.00 | 0.00 | 78 | 1006.3 |
| 20260505165025 | 76 | 229 | 3.0 | 10.0 | 0.00 | 0.00 | 0.00 | 78 | 1006.3 |
| 20260505164524 | 76 | 130 | 5.0 | 10.0 | 0.00 | 0.00 | 0.00 | 79 | 1006.3 |
| 20260505164023 | 75 | 168 | 3.0 | 10.0 | 0.00 | 0.00 | 0.00 | 79 | 1006.3 |
| 20260505163521 | 75 | 200 | 3.0 | 10.0 | 0.00 | 0.00 | 0.00 | 80 | 1006.4 |
| 20260505163021 | 75 | 191 | 4.0 | 11.0 | 0.00 | 0.00 | 0.00 | 80 | 1006.4 |
| 20260505162520 | 75 | 185 | 5.0 | 10.0 | 0.00 | 0.00 | 0.00 | 80 | 1006.4 |
| 20260505162018 | 74 | 228 | 3.0 | 8.0 | 0.00 | 0.00 | 0.00 | 81 | 1006.4 |
| 20260505161525 | 74 | 140 | 2.0 | 10.0 | 0.00 | 0.00 | 0.00 | 81 | 1006.5 |
| 20260505161017 | 74 | 189 | 4.0 | 10.0 | 0.00 | 0.00 | 0.00 | 81 | 1006.4 |
| 20260505160517 | 74 | 190 | 4.0 | 10.0 | 0.00 | 0.00 | 0.00 | 81 | 1006.5 |
| 20260505153011 | 73 | 215 | 3.0 | 9.0 | 0.00 | 0.00 | 0.00 | 83 | 1006.4 |
| 20260505152511 | 73 | 183 | 3.0 | 9.0 | 0.00 | 0.00 | 0.00 | 83 | 1006.4 |
| 20260505152010 | 72 | 176 | 4.0 | 10.0 | 0.00 | 0.00 | 0.00 | 83 | 1006.4 |
| 20260505151510 | 72 | 207 | 4.0 | 10.0 | 0.00 | 0.00 | 0.00 | 83 | 1006.4 |
| 20260505151008 | 72 | 148 | 3.0 | 9.0 | 0.00 | 0.00 | 0.00 | 84 | 1006.3 |
| 20260505150507 | 72 | 186 | 3.0 | 9.0 | 0.00 | 0.00 | 0.00 | 84 | 1006.3 |
| 20260505140600 | 70 | 194 | 4.0 | 9.0 | 0.00 | 0.00 | 0.00 | 85 | 1006.4 |
| 20260505140119 | 70 | 175 | 4.0 | 9.0 | 0.00 | 0.00 | 0.00 | 85 | 1006.4 |
| 20260505124651 | 70 | 166 | 2.0 | 9.0 | 0.00 | 0.00 | 0.00 | 85 | 1006.1 |
| 20260505124050 | 70 | 234 | 5.0 | 12.0 | 0.00 | 0.00 | 0.00 | 85 | 1006.0 |
| 20260505123549 | 70 | 211 | 6.0 | 16.0 | 0.00 | 0.00 | 0.00 | 85 | 1005.9 |
| 20260505123048 | 70 | 170 | 4.0 | 16.0 | 0.00 | 0.00 | 0.00 | 85 | 1005.8 |
| 20260505122547 | 70 | 167 | 4.0 | 10.0 | 0.00 | 0.00 | 0.00 | 85 | 1005.8 |
| 20260505122047 | 70 | 177 | 5.0 | 10.0 | 0.00 | 0.00 | 0.00 | 85 | 1005.6 |
| 20260505121547 | 70 | 184 | 2.0 | 9.0 | 0.00 | 0.00 | 0.00 | 85 | 1005.6 |
| 20260505121047 | 70 | 209 | 3.0 | 9.0 | 0.00 | 0.00 | 0.00 | 85 | 1005.6 |
| 20260505120546 | 70 | 186 | 5.0 | 9.0 | 0.00 | 0.00 | 0.00 | 85 | 1005.6 |
| 20260505120051 | 70 | 220 | 4.0 | 8.0 | 0.00 | 0.00 | 0.00 | 85 | 1005.5 |
| 20260505115549 | 70 | 182 | 3.0 | 10.0 | 0.00 | 0.00 | 0.00 | 85 | 1005.4 |
| 20260505115046 | 70 | 162 | 4.0 | 10.0 | 0.00 | 0.00 | 0.00 | 85 | 1005.4 |
| 20260505114548 | 70 | 198 | 4.0 | 8.0 | 0.00 | 0.00 | 0.00 | 85 | 1005.4 |
| 20260505114045 | 70 | 217 | 3.0 | 8.0 | 0.00 | 0.00 | 0.00 | 85 | 1005.3 |
| 20260505113547 | 70 | 184 | 3.0 | 8.0 | 0.00 | 0.00 | 0.00 | 85 | 1005.3 |
| 20260505113045 | 70 | 143 | 3.0 | 10.0 | 0.00 | 0.00 | 0.00 | 85 | 1005.2 |
| 20260505112548 | 70 | 196 | 5.0 | 10.0 | 0.00 | 0.00 | 0.00 | 85 | 1005.2 |
| 20260505112044 | 70 | 155 | 5.0 | 10.0 | 0.00 | 0.00 | 0.00 | 85 | 1005.2 |
| 20260505111544 | 70 | 172 | 4.0 | 10.0 | 0.00 | 0.00 | 0.00 | 85 | 1005.2 |
| 20260505111045 | 70 | 172 | 1.0 | 9.0 | 0.00 | 0.00 | 0.00 | 85 | 1005.2 |
| 20260505110544 | 70 | 152 | 2.0 | 11.0 | 0.00 | 0.00 | 0.00 | 85 | 1005.3 |
| 20260505102039 | 70 | 179 | 5.0 | 11.0 | 0.00 | 0.00 | 0.00 | 85 | 1005.4 |
| 20260505101543 | 70 | 254 | 5.0 | 10.0 | 0.00 | 0.00 | 0.00 | 85 | 1005.4 |
| 20260505101040 | 70 | 215 | 3.0 | 12.0 | 0.00 | 0.00 | 0.00 | 85 | 1005.5 |
| 20260505100538 | 70 | 213 | 3.0 | 12.0 | 0.00 | 0.00 | 0.00 | 85 | 1005.5 |
| 20260505100041 | 70 | 205 | 4.0 | 12.0 | 0.00 | 0.00 | 0.00 | 85 | 1005.5 |
| 20260505095538 | 70 | 202 | 4.0 | 14.0 | 0.00 | 0.00 | 0.00 | 85 | 1005.6 |
| 20260505095037 | 69 | 165 | 5.0 | 13.0 | 0.00 | 0.00 | 0.00 | 85 | 1005.6 |
| 20260505094537 | 69 | 195 | 5.0 | 11.0 | 0.00 | 0.00 | 0.00 | 85 | 1005.7 |
| 20260505094036 | 69 | 150 | 4.0 | 11.0 | 0.00 | 0.00 | 0.00 | 85 | 1005.7 |
| 20260505093536 | 69 | 182 | 3.0 | 10.0 | 0.00 | 0.00 | 0.00 | 85 | 1005.8 |
| 20260505093036 | 69 | 167 | 4.0 | 10.0 | 0.00 | 0.00 | 0.00 | 85 | 1005.7 |
| 20260505092539 | 69 | 194 | 3.0 | 10.0 | 0.00 | 0.00 | 0.00 | 85 | 1005.7 |
| 20260505092035 | 69 | 164 | 2.0 | 8.0 | 0.00 | 0.00 | 0.00 | 85 | 1005.7 |
| 20260505091538 | 69 | 171 | 4.0 | 11.0 | 0.00 | 0.00 | 0.00 | 85 | 1005.7 |
| 20260505091034 | 69 | 177 | 4.0 | 18.0 | 0.00 | 0.00 | 0.00 | 85 | 1005.8 |
| 20260505090534 | 69 | 153 | 5.0 | 12.0 | 0.00 | 0.00 | 0.00 | 85 | 1005.7 |
| 20260505090036 | 69 | 208 | 2.0 | 14.0 | 0.00 | 0.00 | 0.00 | 85 | 1005.7 |
| 20260505085534 | 69 | 157 | 5.0 | 11.0 | 0.00 | 0.00 | 0.00 | 85 | 1005.6 |
| 20260505085033 | 69 | 216 | 4.0 | 11.0 | 0.00 | 0.00 | 0.00 | 85 | 1005.6 |
| 20260505084541 | 69 | 161 | 3.0 | 12.0 | 0.00 | 0.00 | 0.00 | 85 | 1005.8 |
| 20260505084031 | 69 | 236 | 3.0 | 11.0 | 0.00 | 0.00 | 0.00 | 85 | 1005.8 |
| 20260505083533 | 69 | 163 | 4.0 | 11.0 | 0.00 | 0.00 | 0.00 | 85 | 1005.9 |
| 20260505083030 | 69 | 152 | 3.0 | 6.0 | 0.00 | 0.00 | 0.00 | 85 | 1006.0 |
| 20260505082530 | 69 | 162 | 2.0 | 11.0 | 0.00 | 0.00 | 0.00 | 85 | 1006.3 |
| 20260505082030 | 69 | 153 | 5.0 | 11.0 | 0.00 | 0.00 | 0.00 | 85 | 1006.3 |
| 20260505081529 | 69 | 159 | 4.0 | 9.0 | 0.00 | 0.00 | 0.00 | 85 | 1006.2 |
| 20260505081027 | 69 | 145 | 3.0 | 11.0 | 0.00 | 0.00 | 0.00 | 85 | 1006.3 |
| 20260505080526 | 69 | 168 | 3.0 | 10.0 | 0.00 | 0.00 | 0.00 | 85 | 1006.4 |
| 20260505080027 | 69 | 184 | 4.0 | 7.0 | 0.00 | 0.00 | 0.00 | 85 | 1006.4 |
| 20260505075526 | 69 | 184 | 3.0 | 8.0 | 0.00 | 0.00 | 0.00 | 85 | 1006.3 |
| 20260505075030 | 69 | 177 | 4.0 | 8.0 | 0.00 | 0.00 | 0.00 | 84 | 1006.4 |
| 20260505074524 | 69 | 163 | 3.0 | 7.0 | 0.00 | 0.00 | 0.00 | 84 | 1006.5 |
| 20260505074023 | 69 | 191 | 1.0 | 8.0 | 0.00 | 0.00 | 0.00 | 84 | 1006.7 |
| 20260505073522 | 69 | 149 | 3.0 | 8.0 | 0.00 | 0.00 | 0.00 | 84 | 1006.7 |
| 20260505073033 | 69 | 160 | 4.0 | 10.0 | 0.00 | 0.00 | 0.00 | 84 | 1006.8 |
| 20260505072521 | 69 | 173 | 3.0 | 10.0 | 0.00 | 0.00 | 0.00 | 84 | 1006.9 |
| 20260505072020 | 69 | 152 | 2.0 | 12.0 | 0.00 | 0.00 | 0.00 | 84 | 1007.0 |
| 20260505071520 | 69 | 157 | 4.0 | 12.0 | 0.00 | 0.00 | 0.00 | 83 | 1007.2 |
| 20260505071020 | 69 | 149 | 3.0 | 14.0 | 0.00 | 0.00 | 0.00 | 83 | 1007.1 |
| 20260505070519 | 69 | 171 | 5.0 | 14.0 | 0.00 | 0.00 | 0.00 | 83 | 1007.1 |
| 20260505070029 | 69 | 164 | 4.0 | 10.0 | 0.00 | 0.00 | 0.00 | 83 | 1007.2 |
| 20260505065517 | 69 | 119 | 3.0 | 11.0 | 0.00 | 0.00 | 0.00 | 83 | 1007.3 |
| 20260505065017 | 69 | 130 | 5.0 | 11.0 | 0.00 | 0.00 | 0.00 | 83 | 1007.3 |
| 20260505064516 | 69 | 229 | 3.0 | 8.0 | 0.00 | 0.00 | 0.00 | 82 | 1007.3 |
| 20260505064015 | 69 | 160 | 4.0 | 9.0 | 0.00 | 0.00 | 0.00 | 82 | 1007.3 |
| 20260505063515 | 69 | 225 | 4.0 | 10.0 | 0.00 | 0.00 | 0.00 | 82 | 1007.3 |
| 20260505063015 | 69 | 155 | 4.0 | 12.0 | 0.00 | 0.00 | 0.00 | 82 | 1007.3 |
| 20260505062515 | 69 | 194 | 4.0 | 11.0 | 0.00 | 0.00 | 0.00 | 82 | 1007.3 |
| 20260505062013 | 69 | 155 | 4.0 | 11.0 | 0.00 | 0.00 | 0.00 | 82 | 1007.3 |
| 20260505061514 | 69 | 163 | 4.0 | 11.0 | 0.00 | 0.00 | 0.00 | 82 | 1007.5 |
| 20260505061011 | 70 | 200 | 4.0 | 11.0 | 0.00 | 0.00 | 0.00 | 82 | 1007.6 |
| 20260505060512 | 70 | 173 | 4.0 | 10.0 | 0.00 | 0.00 | 0.00 | 81 | 1007.6 |
| 20260505060013 | 70 | 133 | 4.0 | 9.0 | 0.00 | 0.00 | 0.00 | 81 | 1007.7 |
| 20260505055509 | 70 | 236 | 4.0 | 10.0 | 0.00 | 0.00 | 0.00 | 81 | 1007.6 |
| 20260505055008 | 70 | 186 | 3.0 | 10.0 | 0.00 | 0.00 | 0.00 | 81 | 1007.6 |
| 20260505054508 | 70 | 145 | 5.0 | 12.0 | 0.00 | 0.00 | 0.00 | 81 | 1007.7 |
| 20260505054006 | 70 | 163 | 4.0 | 12.0 | 0.00 | 0.00 | 0.00 | 81 | 1007.7 |
| 20260505053509 | 70 | 171 | 4.0 | 14.0 | 0.00 | 0.00 | 0.00 | 80 | 1007.5 |
| 20260505053005 | 70 | 155 | 3.0 | 14.0 | 0.00 | 0.00 | 0.00 | 80 | 1007.5 |
| 20260505052504 | 70 | 165 | 4.0 | 11.0 | 0.00 | 0.00 | 0.00 | 80 | 1007.6 |
| 20260505052005 | 71 | 164 | 2.0 | 15.0 | 0.00 | 0.00 | 0.00 | 80 | 1007.5 |
| 20260505051503 | 71 | 165 | 6.0 | 15.0 | 0.00 | 0.00 | 0.00 | 79 | 1007.4 |
| 20260505051001 | 71 | 178 | 4.0 | 10.0 | 0.00 | 0.00 | 0.00 | 79 | 1007.5 |
| 20260505050600 | 71 | 143 | 4.0 | 10.0 | 0.00 | 0.00 | 0.00 | 79 | 1007.5 |
| 20260505041600 | 72 | 157 | 5.0 | 12.0 | 0.00 | 0.00 | 0.00 | 77 | 1007.7 |
| 20260505041101 | 72 | 128 | 4.0 | 9.0 | 0.00 | 0.00 | 0.00 | 77 | 1007.7 |
| 20260505040600 | 72 | 159 | 4.0 | 11.0 | 0.00 | 0.00 | 0.00 | 77 | 1007.7 |
| 20260505040057 | 72 | 168 | 5.0 | 11.0 | 0.00 | 0.00 | 0.00 | 77 | 1007.7 |
| 20260505035557 | 73 | 109 | 2.0 | 10.0 | 0.00 | 0.00 | 0.00 | 77 | 1007.5 |
| 20260505035059 | 73 | 104 | 2.0 | 11.0 | 0.00 | 0.00 | 0.00 | 76 | 1007.4 |
| 20260505034556 | 73 | 148 | 3.0 | 11.0 | 0.00 | 0.00 | 0.00 | 76 | 1007.4 |
| 20260505034059 | 73 | 171 | 4.0 | 9.0 | 0.00 | 0.00 | 0.00 | 76 | 1007.4 |
| 20260505033600 | 73 | 175 | 4.0 | 9.0 | 0.00 | 0.00 | 0.00 | 76 | 1007.4 |
| 20260505033055 | 73 | 156 | 2.0 | 9.0 | 0.00 | 0.00 | 0.00 | 76 | 1007.3 |
| 20260505032554 | 73 | 142 | 4.0 | 9.0 | 0.00 | 0.00 | 0.00 | 75 | 1007.4 |
| 20260505032054 | 73 | 156 | 3.0 | 12.0 | 0.00 | 0.00 | 0.00 | 75 | 1007.5 |
| 20260505031605 | 74 | 180 | 5.0 | 14.0 | 0.00 | 0.00 | 0.00 | 75 | 1007.4 |
| 20260505031055 | 74 | 161 | 3.0 | 8.0 | 0.00 | 0.00 | 0.00 | 74 | 1007.4 |
| 20260505030555 | 74 | 163 | 3.0 | 7.0 | 0.00 | 0.00 | 0.00 | 74 | 1007.6 |
| 20260505030055 | 74 | 142 | 2.0 | 4.0 | 0.00 | 0.00 | 0.00 | 74 | 1007.7 |
| 20260505025554 | 74 | 137 | 1.0 | 5.0 | 0.00 | 0.00 | 0.00 | 74 | 1007.6 |
| 20260505025053 | 74 | 178 | 2.0 | 8.0 | 0.00 | 0.00 | 0.00 | 74 | 1007.6 |
| 20260505024603 | 74 | 180 | 3.0 | 8.0 | 0.00 | 0.00 | 0.00 | 73 | 1007.5 |
| 20260505024053 | 74 | 171 | 3.0 | 6.0 | 0.00 | 0.00 | 0.00 | 73 | 1007.3 |
| 20260505023553 | 74 | 175 | 1.0 | 6.0 | 0.00 | 0.00 | 0.00 | 73 | 1007.3 |
| 20260505023054 | 75 | 139 | 2.0 | 6.0 | 0.00 | 0.00 | 0.00 | 72 | 1007.2 |
| 20260505022553 | 75 | 153 | 1.0 | 4.0 | 0.00 | 0.00 | 0.00 | 72 | 1007.3 |
| 20260505022053 | 75 | 169 | 1.0 | 7.0 | 0.00 | 0.00 | 0.00 | 71 | 1007.2 |
| 20260505021555 | 75 | 130 | 2.0 | 7.0 | 0.00 | 0.00 | 0.00 | 71 | 1007.2 |
| 20260505021055 | 75 | 147 | 1.0 | 2.0 | 0.00 | 0.00 | 0.00 | 70 | 1007.0 |
| 20260505020552 | 75 | 147 | 0.0 | 5.0 | 0.00 | 0.00 | 0.00 | 70 | 1006.9 |
| 20260505020052 | 76 | 147 | 0.0 | 5.0 | 0.00 | 0.00 | 0.00 | 69 | 1006.9 |
| 20260505015552 | 76 | 159 | 2.0 | 6.0 | 0.00 | 0.00 | 0.00 | 69 | 1006.8 |
| 20260505015053 | 76 | 163 | 2.0 | 6.0 | 0.00 | 0.00 | 0.00 | 69 | 1006.8 |
| 20260505014606 | 76 | 151 | 1.0 | 7.0 | 0.00 | 0.00 | 0.00 | 69 | 1006.8 |
| 20260505014051 | 76 | 166 | 1.0 | 7.0 | 0.00 | 0.00 | 0.00 | 68 | 1006.8 |
| 20260505013552 | 77 | 171 | 3.0 | 10.0 | 0.00 | 0.00 | 0.00 | 68 | 1006.8 |
| 20260505013052 | 77 | 159 | 2.0 | 11.0 | 0.00 | 0.00 | 0.00 | 68 | 1006.8 |
| 20260505012653 | 77 | 133 | 2.0 | 11.0 | 0.00 | 0.00 | 0.00 | 68 | 1006.8 |
| 20260505012050 | 77 | 163 | 3.0 | 10.0 | 0.00 | 0.00 | 0.00 | 68 | 1006.7 |
| 20260505011559 | 77 | 186 | 3.0 | 10.0 | 0.00 | 0.00 | 0.00 | 68 | 1006.7 |
| 20260505011049 | 78 | 147 | 4.0 | 9.0 | 0.00 | 0.00 | 0.00 | 68 | 1006.7 |
| 20260505010549 | 78 | 194 | 3.0 | 10.0 | 0.00 | 0.00 | 0.00 | 67 | 1006.7 |
| 20260505010049 | 78 | 166 | 4.0 | 10.0 | 0.00 | 0.00 | 0.00 | 67 | 1006.7 |
| 20260505005549 | 78 | 176 | 3.0 | 11.0 | 0.00 | 0.00 | 0.00 | 67 | 1006.7 |
| 20260505005052 | 78 | 138 | 4.0 | 12.0 | 0.00 | 0.00 | 0.00 | 67 | 1006.6 |
| 20260505004549 | 78 | 139 | 1.0 | 9.0 | 0.00 | 0.00 | 0.00 | 66 | 1006.5 |
| 20260505004048 | 79 | 175 | 2.0 | 11.0 | 0.00 | 0.00 | 0.00 | 66 | 1006.4 |
| 20260505003552 | 79 | 146 | 4.0 | 11.0 | 0.00 | 0.00 | 0.00 | 65 | 1006.4 |
| 20260505003047 | 79 | 123 | 3.0 | 9.0 | 0.00 | 0.00 | 0.00 | 65 | 1006.4 |
| 20260505002548 | 80 | 128 | 5.0 | 12.0 | 0.00 | 0.00 | 0.00 | 65 | 1006.6 |
| 20260505002047 | 80 | 155 | 6.0 | 12.0 | 0.00 | 0.00 | 0.00 | 63 | 1006.5 |
| 20260505001547 | 80 | 144 | 4.0 | 11.0 | 0.00 | 0.00 | 0.00 | 62 | 1006.7 |
| 20260505001046 | 80 | 152 | 5.0 | 11.0 | 0.00 | 0.00 | 0.00 | 61 | 1006.5 |
| 20260505000546 | 80 | 202 | 5.0 | 11.0 | 0.00 | 0.00 | 0.00 | 61 | 1006.6 |
| 20260505000057 | 80 | 161 | 2.0 | 12.0 | 0.00 | 0.00 | 0.00 | 61 | 1006.7 |
| 20260504235544 | 80 | 182 | 5.0 | 13.0 | 0.00 | 0.00 | 0.00 | 61 | 1006.9 |
| 20260504235044 | 81 | 206 | 5.0 | 13.0 | 0.00 | 0.00 | 0.00 | 60 | 1006.9 |
| 20260504234548 | 81 | 170 | 4.0 | 12.0 | 0.00 | 0.00 | 0.00 | 60 | 1006.9 |
| 20260504234043 | 81 | 121 | 6.0 | 12.0 | 0.00 | 0.00 | 0.00 | 60 | 1007.0 |
| 20260504233542 | 81 | 141 | 5.0 | 13.0 | 0.00 | 0.00 | 0.00 | 61 | 1007.0 |
| 20260504233103 | 81 | 52 | 6.0 | 10.0 | 0.00 | 0.00 | 0.00 | 60 | 1007.0 |
| 20260504232541 | 81 | 172 | 6.0 | 14.0 | 0.00 | 0.00 | 0.00 | 61 | 1007.1 |
| 20260504232043 | 80 | 150 | 3.0 | 13.0 | 0.00 | 0.00 | 0.00 | 61 | 1007.2 |
| 20260504231543 | 80 | 146 | 6.0 | 11.0 | 0.00 | 0.00 | 0.00 | 61 | 1007.3 |
| 20260504231039 | 80 | 165 | 6.0 | 14.0 | 0.00 | 0.00 | 0.00 | 61 | 1007.3 |
| 20260504230539 | 81 | 150 | 6.0 | 14.0 | 0.00 | 0.00 | 0.00 | 60 | 1007.4 |
| 20260504230039 | 80 | 147 | 5.0 | 12.0 | 0.00 | 0.00 | 0.00 | 60 | 1007.6 |
| 20260504225536 | 80 | 161 | 7.0 | 13.0 | 0.00 | 0.00 | 0.00 | 60 | 1007.6 |
| 20260504225036 | 81 | 164 | 7.0 | 12.0 | 0.00 | 0.00 | 0.00 | 60 | 1007.8 |
| 20260504224540 | 80 | 130 | 2.0 | 12.0 | 0.00 | 0.00 | 0.00 | 60 | 1007.7 |
| 20260504224037 | 80 | 184 | 3.0 | 12.0 | 0.00 | 0.00 | 0.00 | 61 | 1007.8 |
| 20260504223536 | 81 | 146 | 5.0 | 11.0 | 0.00 | 0.00 | 0.00 | 60 | 1007.8 |
| 20260504223054 | 80 | 184 | 2.0 | 11.0 | 0.00 | 0.00 | 0.00 | 61 | 1007.8 |
| 20260504222536 | 80 | 134 | 4.0 | 11.0 | 0.00 | 0.00 | 0.00 | 60 | 1007.9 |
| 20260504222035 | 81 | 181 | 2.0 | 10.0 | 0.00 | 0.00 | 0.00 | 60 | 1007.9 |
| 20260504221538 | 81 | 132 | 4.0 | 10.0 | 0.00 | 0.00 | 0.00 | 59 | 1007.9 |
| 20260504221037 | 81 | 109 | 5.0 | 12.0 | 0.00 | 0.00 | 0.00 | 59 | 1007.9 |
| 20260504220534 | 81 | 180 | 3.0 | 12.0 | 0.00 | 0.00 | 0.00 | 60 | 1007.8 |
| 20260504220034 | 81 | 187 | 5.0 | 13.0 | 0.00 | 0.00 | 0.00 | 60 | 1007.8 |
| 20260504215533 | 81 | 199 | 5.0 | 10.0 | 0.00 | 0.00 | 0.00 | 60 | 1007.9 |
| 20260504215031 | 81 | 162 | 2.0 | 11.0 | 0.00 | 0.00 | 0.00 | 60 | 1007.9 |
| 20260504214531 | 80 | 145 | 3.0 | 15.0 | 0.00 | 0.00 | 0.00 | 59 | 1008.0 |
| 20260504214030 | 81 | 146 | 8.0 | 15.0 | 0.00 | 0.00 | 0.00 | 59 | 1008.0 |
| 20260504213530 | 80 | 144 | 5.0 | 12.0 | 0.00 | 0.00 | 0.00 | 60 | 1008.0 |
| 20260504213042 | 80 | 180 | 4.0 | 15.0 | 0.00 | 0.00 | 0.00 | 60 | 1008.2 |
| 20260504212528 | 80 | 167 | 3.0 | 13.0 | 0.00 | 0.00 | 0.00 | 60 | 1008.3 |
| 20260504212026 | 80 | 144 | 5.0 | 13.0 | 0.00 | 0.00 | 0.00 | 60 | 1008.5 |
| 20260504211532 | 80 | 184 | 4.0 | 15.0 | 0.00 | 0.00 | 0.00 | 60 | 1008.7 |
| 20260504211025 | 80 | 177 | 4.0 | 11.0 | 0.00 | 0.00 | 0.00 | 60 | 1008.6 |
| 20260504210524 | 80 | 232 | 4.0 | 12.0 | 0.00 | 0.00 | 0.00 | 61 | 1008.8 |
| 20260504210024 | 80 | 175 | 5.0 | 12.0 | 0.00 | 0.00 | 0.00 | 61 | 1008.9 |
| 20260504205523 | 80 | 204 | 5.0 | 15.0 | 0.00 | 0.00 | 0.00 | 61 | 1009.0 |
| 20260504205025 | 80 | 156 | 7.0 | 15.0 | 0.00 | 0.00 | 0.00 | 60 | 1009.0 |
| 20260504204534 | 80 | 182 | 6.0 | 15.0 | 0.00 | 0.00 | 0.00 | 60 | 1009.1 |
| 20260504204026 | 79 | 149 | 3.0 | 15.0 | 0.00 | 0.00 | 0.00 | 61 | 1009.1 |
| 20260504203520 | 79 | 183 | 8.0 | 15.0 | 0.00 | 0.00 | 0.00 | 60 | 1009.2 |
| 20260504203023 | 80 | 246 | 4.0 | 13.0 | 0.00 | 0.00 | 0.00 | 60 | 1009.3 |
| 20260504202519 | 79 | 227 | 6.0 | 13.0 | 0.00 | 0.00 | 0.00 | 61 | 1009.4 |
| 20260504202018 | 79 | 192 | 6.0 | 13.0 | 0.00 | 0.00 | 0.00 | 61 | 1009.4 |
| 20260504201518 | 79 | 150 | 3.0 | 11.0 | 0.00 | 0.00 | 0.00 | 62 | 1009.6 |
| 20260504201020 | 79 | 192 | 3.0 | 11.0 | 0.00 | 0.00 | 0.00 | 61 | 1009.6 |
| 20260504200517 | 79 | 163 | 4.0 | 11.0 | 0.00 | 0.00 | 0.00 | 61 | 1009.8 |
| 20260504200016 | 79 | 146 | 4.0 | 11.0 | 0.00 | 0.00 | 0.00 | 61 | 1009.8 |
| 20260504195516 | 80 | 139 | 4.0 | 11.0 | 0.00 | 0.00 | 0.00 | 61 | 1009.8 |
| 20260504195016 | 80 | 194 | 6.0 | 12.0 | 0.00 | 0.00 | 0.00 | 60 | 1009.8 |
| 20260504194514 | 80 | 223 | 4.0 | 11.0 | 0.00 | 0.00 | 0.00 | 60 | 1009.8 |
| 20260504194013 | 80 | 178 | 3.0 | 14.0 | 0.00 | 0.00 | 0.00 | 61 | 1009.8 |
| 20260504193512 | 79 | 192 | 6.0 | 14.0 | 0.00 | 0.00 | 0.00 | 61 | 1010.0 |
| 20260504193012 | 79 | 173 | 5.0 | 10.0 | 0.00 | 0.00 | 0.00 | 61 | 1010.1 |
| 20260504192511 | 79 | 155 | 4.0 | 11.0 | 0.00 | 0.00 | 0.00 | 61 | 1010.1 |
| 20260504192013 | 79 | 159 | 3.0 | 16.0 | 0.00 | 0.00 | 0.00 | 61 | 1010.2 |
| 20260504191511 | 79 | 146 | 8.0 | 16.0 | 0.00 | 0.00 | 0.00 | 60 | 1010.2 |
| 20260504191010 | 79 | 150 | 3.0 | 12.0 | 0.00 | 0.00 | 0.00 | 61 | 1010.2 |
| 20260504190509 | 79 | 186 | 4.0 | 12.0 | 0.00 | 0.00 | 0.00 | 61 | 1010.3 |
| 20260504190008 | 78 | 165 | 6.0 | 15.0 | 0.00 | 0.00 | 0.00 | 62 | 1010.2 |
| 20260504185508 | 79 | 150 | 6.0 | 15.0 | 0.00 | 0.00 | 0.00 | 61 | 1010.2 |
| 20260504185009 | 79 | 159 | 6.0 | 14.0 | 0.00 | 0.00 | 0.00 | 61 | 1010.3 |
| 20260504184506 | 79 | 204 | 4.0 | 17.0 | 0.00 | 0.00 | 0.00 | 61 | 1010.6 |
| 20260504184007 | 79 | 220 | 7.0 | 13.0 | 0.00 | 0.00 | 0.00 | 61 | 1010.8 |
| 20260504183507 | 79 | 184 | 6.0 | 13.0 | 0.00 | 0.00 | 0.00 | 61 | 1010.8 |
| 20260504183004 | 79 | 200 | 4.0 | 13.0 | 0.00 | 0.00 | 0.00 | 61 | 1010.8 |
| 20260504182503 | 79 | 223 | 4.0 | 14.0 | 0.00 | 0.00 | 0.00 | 62 | 1010.7 |
| 20260504182003 | 79 | 209 | 5.0 | 17.0 | 0.00 | 0.00 | 0.00 | 62 | 1010.9 |
| 20260504181506 | 78 | 178 | 6.0 | 17.0 | 0.00 | 0.00 | 0.00 | 63 | 1010.8 |
| 20260504181004 | 78 | 223 | 4.0 | 12.0 | 0.00 | 0.00 | 0.00 | 62 | 1011.0 |
| 20260504180601 | 78 | 134 | 5.0 | 12.0 | 0.00 | 0.00 | 0.00 | 62 | 1011.0 |
| 20260504180100 | 79 | 151 | 4.0 | 12.0 | 0.00 | 0.00 | 0.00 | 62 | 1011.2 |
| 20260504175559 | 79 | 146 | 4.0 | 12.0 | 0.00 | 0.00 | 0.00 | 62 | 1011.2 |
| 20260504175058 | 78 | 172 | 5.0 | 11.0 | 0.00 | 0.00 | 0.00 | 62 | 1011.2 |
| 20260504174614 | 78 | 150 | 6.0 | 11.0 | 0.00 | 0.00 | 0.00 | 62 | 1011.4 |
| 20260504174056 | 78 | 193 | 6.0 | 11.0 | 0.00 | 0.00 | 0.00 | 61 | 1011.5 |